Weather History for Houghton Lake, MI

Change the Weather History Date:

Saturday, June 15, 2013

  Actual Average Record
Temperature  
Mean Temperature 59 °F 63 °F  
Max Temperature 73 °F 76 °F 93 °F (1994)
Min Temperature 45 °F 50 °F 28 °F (1928)
Degree Days  
Heating Degree Days 6 4  
Month to date heating degree days 83 82  
Since 1 June heating degree days 83 82  
Since 1 July heating degree days 7647 8101  
Cooling Degree Days 0 2  
Month to date cooling degree days 14 20  
Year to date cooling degree days 54 36  
Since 1 June cooling degree days 14 20  
Growing Degree Days 9 (Base 50)    
Moisture  
Dew Point 51 °F    
Average Humidity 69    
Maximum Humidity 100    
Minimum Humidity 37    
Precipitation  
Precipitation T in 0.11 in 1.32 in (1949)
Month to date precipitation 0.22 1.59  
Year to date precipitation 16.16 11.45  
Sea Level Pressure  
Sea Level Pressure 30.00 in    
Wind  
Wind Speed 3 mph (SW)    
Max Wind Speed 12 mph    
Max Gust Speed 15 mph    
Visibility 10 miles    
Events      
T = Trace of Precipitation, MM = Missing Value Source: NWS Daily Summary

Daily Weather History Graph

Daily Weather History Graph

Search for Another Location

Airport:

Trip Planner

Search our weather history database for the weather conditions in past years. The results will help you decide how hot, cold, wet, or windy it might be!

Date:

Astronomy

Jun. 15, 2013 Rise Set
Actual Time 5:53 AM EDT 9:24 PM EDT
Civil Twilight 5:17 AM EDT 10:01 PM EDT
Nautical Twilight 4:28 AM EDT 10:49 PM EDT
Astronomical Twilight 3:26 AM EDT 11:52 PM EDT
Moon 12:41 PM EDT (6/15) 12:47 AM EDT (6/15)
Length of Visible Light 16h 44m
Length of Day
15h 30m
Waxing Crescent, 39% of the Moon is Illuminated
Jun 15
Waxing Crescent
Jun 16
First Quarter
Jun 23
Full
Jun 30
Last Quarter
Jul 8
New

Hourly Weather History & Observations

Time (EDT) Temp. Dew Point Humidity Pressure Visibility Wind Dir Wind Speed Gust Speed Precip Events Conditions
12:53 AM 48.9 °F 46.0 °F 90% 30.06 in 10.0 mi Calm Calm - N/A   Clear
1:53 AM 46.0 °F 46.0 °F 100% 30.05 in 10.0 mi Calm Calm - N/A   Clear
2:53 AM 46.0 °F 45.0 °F 96% 30.06 in 10.0 mi Calm Calm - N/A   Clear
3:01 AM 46.4 °F 44.6 °F 93% 30.06 in 1.5 mi Calm Calm - N/A   Clear
3:11 AM 46.4 °F 44.6 °F 93% 30.05 in 3.0 mi Calm Calm - N/A   Clear
3:53 AM 46.0 °F 45.0 °F 96% 30.06 in 10.0 mi Calm Calm - N/A   Clear
4:53 AM 46.9 °F 45.0 °F 93% 30.05 in 10.0 mi Calm Calm - N/A   Clear
5:53 AM 48.9 °F 46.9 °F 93% 30.05 in 10.0 mi Calm Calm - N/A   Overcast
6:53 AM 51.1 °F 48.9 °F 92% 30.06 in 10.0 mi Calm Calm - N/A   Overcast
7:53 AM 53.1 °F 51.1 °F 93% 30.05 in 10.0 mi Calm Calm - N/A   Scattered Clouds
8:53 AM 63.0 °F 51.1 °F 65% 30.06 in 10.0 mi West 3.5 mph - N/A   Overcast
9:53 AM 64.0 °F 48.0 °F 56% 30.06 in 10.0 mi Variable 3.5 mph - N/A   Clear
10:53 AM 66.9 °F 46.9 °F 49% 30.04 in 10.0 mi SW 4.6 mph - N/A   Clear
11:53 AM 69.1 °F 43.0 °F 39% 30.03 in 10.0 mi Calm Calm - N/A   Clear
12:53 PM 69.1 °F 46.9 °F 45% 30.01 in 10.0 mi Variable 3.5 mph - N/A   Clear
1:53 PM 71.1 °F 48.9 °F 45% 30.01 in 10.0 mi West 5.8 mph - N/A   Clear
2:53 PM 72.0 °F 51.1 °F 48% 30.01 in 10.0 mi West 4.6 mph - N/A   Scattered Clouds
3:53 PM 73.0 °F 52.0 °F 48% 29.98 in 10.0 mi SW 5.8 mph - N/A   Clear
4:53 PM 73.0 °F 53.1 °F 49% 29.98 in 10.0 mi Variable 3.5 mph - N/A   Mostly Cloudy
5:53 PM 72.0 °F 55.9 °F 57% 29.96 in 10.0 mi Calm Calm - N/A   Mostly Cloudy
6:53 PM 73.0 °F 59.0 °F 61% 29.94 in 10.0 mi WSW 6.9 mph - N/A   Overcast
7:53 PM 72.0 °F 59.0 °F 64% 29.91 in 10.0 mi WSW 4.6 mph - N/A   Partly Cloudy
8:53 PM 69.1 °F 60.1 °F 73% 29.89 in 10.0 mi South 4.6 mph - N/A   Scattered Clouds
9:53 PM 68.0 °F 60.1 °F 76% 29.87 in 10.0 mi SSW 6.9 mph - N/A   Mostly Cloudy
10:53 PM 68.0 °F 60.1 °F 76% 29.89 in 10.0 mi SSW 9.2 mph - N/A   Mostly Cloudy
11:53 PM 64.9 °F 61.0 °F 87% 29.86 in 10.0 mi North - - 0.00 in   Mostly Cloudy